KG7KID-5 Weather Reports


Display with metric or nautical units.
time (UTC)temp
F
wind
direction
speed
MPH
gust
MPH
rain 1hr
in
rain 24hr
in
rain mn
in
humidity
%
barometer
mb
20260507064202 63 0 0.0 0.0 0.00 0.00 0.00 32 932.3
20260507060802 65 0 0.0 0.0 0.00 0.00 0.00 29 931.8
20260507051803 68 0 0.0 0.0 0.00 0.00 0.00 27 931.2
20260507035804 69 0 0.0 0.0 0.00 0.00 0.00 26 929.9
20260507033303 70 0 0.0 0.0 0.00 0.00 0.00 25 929.3
20260507025306 73 0 0.0 0.0 0.00 0.00 0.00 23 928.5
20260507015803 75 0 0.0 0.0 0.00 0.00 0.00 22 927.5
20260507013443 76 0 0.0 0.0 0.00 0.00 0.00 20 927.4
20260507005756 77 0 0.0 0.0 0.00 0.00 0.00 19 927.3
20260507003756 79 0 0.0 0.0 0.00 0.00 0.00 18 927.2
20260507003235 78 0 0.0 0.0 0.00 0.00 0.00 18 927.0
20260507002756 78 0 0.0 0.0 0.00 0.00 0.00 18 927.0
20260506235756 80 0 0.0 0.0 0.00 0.00 0.00 17 926.9
20260506234255 80 0 0.0 0.0 0.00 0.00 0.00 17 926.8
20260506233756 80 0 0.0 0.0 0.00 0.00 0.00 17 926.8
20260506233256 80 0 0.0 0.0 0.00 0.00 0.00 17 926.9
20260506232756 79 0 0.0 0.0 0.00 0.00 0.00 17 926.9
20260506231756 79 0 0.0 0.0 0.00 0.00 0.00 17 926.9
20260506230756 80 0 0.0 0.0 0.00 0.00 0.00 17 927.0
20260506225626 79 0 0.0 0.0 0.00 0.00 0.00 18 927.0
20260506225255 79 0 0.0 0.0 0.00 0.00 0.00 18 927.0
20260506221733 82 0 0.0 0.0 0.00 0.00 0.00 17 927.4
20260506221502 82 0 0.0 0.0 0.00 0.00 0.00 17 927.4
20260506165317 65 0 0.0 0.0 0.00 0.00 0.00 31 931.8
20260506165043 65 0 0.0 0.0 0.00 0.00 0.00 31 931.8
20260506164327 64 0 0.0 0.0 0.00 0.00 0.00 32 931.8
20260506164042 64 0 0.0 0.0 0.00 0.00 0.00 32 931.8
20260506163543 64 0 0.0 0.0 0.00 0.00 0.00 32 931.8
20260506163042 64 0 0.0 0.0 0.00 0.00 0.00 33 931.9
20260506162820 63 0 0.0 0.0 0.00 0.00 0.00 33 932.0
20260506162543 63 0 0.0 0.0 0.00 0.00 0.00 33 932.0
20260506162043 63 0 0.0 0.0 0.00 0.00 0.00 33 932.0
20260506161820 63 0 0.0 0.0 0.00 0.00 0.00 33 932.1
20260506161542 63 0 0.0 0.0 0.00 0.00 0.00 33 932.1
20260506161341 63 0 0.0 0.0 0.00 0.00 0.00 34 932.0
20260506161043 63 0 0.0 0.0 0.00 0.00 0.00 34 932.0
20260506160543 62 0 0.0 0.0 0.00 0.00 0.00 34 932.0
20260506160341 62 0 0.0 0.0 0.00 0.00 0.00 34 932.0
20260506160042 62 0 0.0 0.0 0.00 0.00 0.00 34 932.0
20260506154702 62 0 0.0 0.0 0.00 0.00 0.00 34 932.1
20260506154339 62 0 0.0 0.0 0.00 0.00 0.00 34 932.1
20260506154202 62 0 0.0 0.0 0.00 0.00 0.00 34 932.1
20260506153355 61 0 0.0 0.0 0.00 0.00 0.00 36 932.1
20260506153202 61 0 0.0 0.0 0.00 0.00 0.00 36 932.1
20260506152946 61 0 0.0 0.0 0.00 0.00 0.00 37 932.2
20260506152702 61 0 0.0 0.0 0.00 0.00 0.00 37 932.2
20260506152202 60 0 0.0 0.0 0.00 0.00 0.00 37 932.2
20260506151908 59 0 0.0 0.0 0.00 0.00 0.00 38 932.2
20260506151702 59 0 0.0 0.0 0.00 0.00 0.00 38 932.2
20260506151352 59 0 0.0 0.0 0.00 0.00 0.00 39 932.3
20260506151202 59 0 0.0 0.0 0.00 0.00 0.00 39 932.3
20260506150703 59 0 0.0 0.0 0.00 0.00 0.00 39 932.2
20260506150203 59 0 0.0 0.0 0.00 0.00 0.00 39 932.3
20260506145702 58 0 0.0 0.0 0.00 0.00 0.00 39 932.4
20260506144703 58 0 0.0 0.0 0.00 0.00 0.00 39 932.4
20260506144444 57 0 0.0 0.0 0.00 0.00 0.00 41 932.3
20260506144202 57 0 0.0 0.0 0.00 0.00 0.00 41 932.3
20260506143203 56 0 0.0 0.0 0.00 0.00 0.00 43 932.3
20260506140350 52 0 0.0 0.0 0.00 0.00 0.00 47 932.4
20260506140202 52 0 0.0 0.0 0.00 0.00 0.00 47 932.4
20260506135201 51 0 0.0 0.0 0.00 0.00 0.00 50 932.4
20260506134701 50 0 0.0 0.0 0.00 0.00 0.00 52 932.3
20260506133813 50 0 0.0 0.0 0.00 0.00 0.00 49 932.3
20260506133702 50 0 0.0 0.0 0.00 0.00 0.00 49 932.3
20260506133310 49 0 0.0 0.0 0.00 0.00 0.00 51 932.2
20260506133201 49 0 0.0 0.0 0.00 0.00 0.00 51 932.2
20260506132819 49 0 0.0 0.0 0.00 0.00 0.00 52 932.0
20260506132702 49 0 0.0 0.0 0.00 0.00 0.00 52 932.0
20260506082034 52 0 0.0 0.0 0.00 0.00 0.00 47 929.7
20260506081448 52 0 0.0 0.0 0.00 0.00 0.00 47 929.7